Home > Weather > Kailua-Kona > Past weeks

Flag for USA Past Weather in Kailua-Kona, Hawaii, USA — Yesterday and Last 2 Weeks

Now
81 °F

Passing clouds.


Feels Like: 85 °F
Forecast: 73 / 82 °F
Wind: 10 mph from East

Location: Keahole Airport

Current Time: Aug 25, 2016 at 10:46:17 PM

Latest Report: Aug 25, 2016 at 9:53 PM


Visibility: 10 mi

Pressure: 30.01 "Hg

Humidity: 72%

Dew Point: 71 °F

Location of Kailua-KonaLocation

Past Weather in Kailua-Kona — Graph

°F

Kailua-Kona Temperature Yesterday

Maximum temperature yesterday: 89 °F (at 12:53 PM)
Minimum temperature yesterday: 79 °F (at 6:53 AM)
Average temperature yesterday: 84 °F

High & Low Weather Summary for the Past Weeks

 TemperatureHumidityPressure
High102 °F (Aug 13, 2:53 PM)90% (Aug 20, 8:53 PM)30.03 "Hg (Aug 20, 8:53 PM)
Low75 °F (Aug 20, 8:53 PM)41% (Aug 13, 2:53 PM)29.83 "Hg (Aug 22, 3:53 PM)
Average83 °F70%29.92 "Hg
* Reported Aug 10 8:53 PM — Aug 25 8:53 PM, Kailua-Kona, Weather by CustomWeather, © 2016

Note: Actual official high and low records may vary slightly from our data, if they occured in-between our weather recording intervals... More about our weather records

Advertising

Kailua-Kona Weather History for the Previous 24 Hours

Scroll right to see more
 ConditionsComfort  
Time TempWeatherWind HumidityBarometerVisibility
8:53 PM
Thu, Aug 25
82 °FClear.5 mph67%30.00 "Hg10 mi
7:53 PM83 °FPassing clouds.No wind72%29.99 "Hg10 mi
6:53 PM83 °FPassing clouds.10 mph74%29.98 "Hg10 mi
5:53 PM84 °FPartly sunny.9 mph72%29.97 "Hg10 mi
4:53 PM85 °FPartly sunny.10 mph70%29.96 "Hg10 mi
3:53 PM85 °FOvercast.9 mph72%29.97 "Hg10 mi
2:53 PM87 °FPartly sunny.12 mph67%29.97 "Hg10 mi
1:53 PM87 °FPartly sunny.10 mph65%29.98 "Hg10 mi
12:53 PM88 °FPartly sunny.14 mph63%30.01 "Hg10 mi
11:53 AM88 °FPartly sunny.13 mph61%30.02 "Hg10 mi
10:53 AM88 °FPassing clouds.12 mph55%30.02 "Hg10 mi
9:53 AM87 °FSunny.8 mph53%30.03 "Hg10 mi
8:53 AM85 °FSunny.6 mph55%30.03 "Hg10 mi
7:53 AM84 °FSunny.3 mph63%30.03 "Hg10 mi
6:53 AM80 °FSunny.No wind76%30.02 "Hg10 mi
5:53 AM80 °FClear.3 mph81%30.01 "Hg10 mi
5:08 AM81 °FMostly cloudy.No wind84%30.00 "Hg10 mi
4:53 AM81 °FMostly cloudy.No wind85%30.00 "Hg10 mi
4:29 AM81 °FLight rain. Mostly cloudy.3 mph84%30.00 "Hg10 mi
4:04 AM81 °FPassing clouds.3 mph74%30.00 "Hg10 mi
3:53 AM80 °FPassing clouds.5 mph76%30.00 "Hg10 mi
2:53 AM80 °FClear.9 mph81%29.99 "Hg10 mi
1:53 AM81 °FClear.8 mph79%29.99 "Hg10 mi
12:53 AM80 °FClear.12 mph85%30.00 "Hg10 mi
11:53 PM
Wed, Aug 24
81 °FClear.12 mph79%30.00 "Hg10 mi
10:53 PM82 °FClear.12 mph79%30.02 "Hg10 mi
Weather by CustomWeather, © 2016

See weather overviewHow to use our weather pages